Franklin, NC

3:59 AM EDT on March 23, 2017 (GMT -0400)
Franklin

Weather History for K1A5 - May, 2013

Change the Weather History Date:

Monday, May 27, 2013

  Actual Average (KTOC) Record (KTOC)
Temperature  
Mean Temperature 61 °F -  
Max Temperature 79 °F 80 °F 89 °F (2014)
Min Temperature 43 °F 59 °F 64 °F (2015)
Degree Days  
Heating Degree Days 4    
Growing Degree Days 11 (Base 50)    
Moisture  
Dew Point 49 °F    
Average Humidity 69    
Maximum Humidity 97    
Minimum Humidity 37    
Precipitation  
Precipitation 0.00 in - - ()
Sea Level Pressure  
Sea Level Pressure 30.24 in    
Wind  
Wind Speed 1 mph (SSE)    
Max Wind Speed 9 mph    
Max Gust Speed 16 mph    
Visibility 10 miles    
Events      
Averages and records for this station are not official NWS values.
T = Trace of Precipitation, MM = Missing Value Source: NWS Daily Summary

Daily Weather History Graph

Daily Weather History Graph

Search for Another Location

Airport or City:

Trip Planner

Search our weather history database for the weather conditions in past years. The results will help you decide how hot, cold, wet, or windy it might be!

Date:

Astronomy

May. 27, 2013 Rise Set
Actual Time 6:22 AM EDT 8:39 PM EDT
Civil Twilight 5:53 AM EDT 9:08 PM EDT
Nautical Twilight 5:17 AM EDT 9:44 PM EDT
Astronomical Twilight 4:38 AM EDT 10:23 PM EDT
Moon 11:20 PM EDT (5/27) 8:56 AM EDT (5/27)
Length of Visible Light 15h 15m
Length of Day
14h 17m
Waning Gibbous, 91% of the Moon is Illuminated
May 27
Waning Gibbous
May 31
Last Quarter
Jun 8
New
Jun 16
First Quarter
Jun 23
Full

Hourly Weather History & Observations

Time (EDT) Temp. Dew Point Humidity Pressure Visibility Wind Dir Wind Speed Gust Speed Precip Events Conditions
12:15 AM 49.3 °F 46.2 °F 89% 30.27 in 10.0 mi Calm Calm - N/A   Clear
12:35 AM 48.6 °F 45.9 °F 90% 30.27 in 10.0 mi Calm Calm - N/A   Clear
12:55 AM 48.7 °F 45.5 °F 89% 30.27 in 10.0 mi Calm Calm - N/A   Clear
1:15 AM 47.8 °F 45.7 °F 92% 30.27 in 10.0 mi Calm Calm - N/A   Clear
1:35 AM 47.8 °F 46.0 °F 93% 30.27 in 10.0 mi Calm Calm - N/A   Clear
1:55 AM 47.3 °F 45.7 °F 94% 30.27 in 10.0 mi Calm Calm - N/A   Clear
2:15 AM 47.3 °F 45.9 °F 95% 30.26 in 10.0 mi Calm Calm - N/A   Clear
2:35 AM 46.4 °F 45.0 °F 95% 30.26 in 10.0 mi Calm Calm - N/A   Clear
2:55 AM 45.7 °F 44.2 °F 95% 30.26 in 10.0 mi Calm Calm - N/A   Clear
3:15 AM 46.2 °F 44.8 °F 95% 30.26 in 10.0 mi Calm Calm - N/A   Clear
3:35 AM 45.5 °F 44.1 °F 95% 30.26 in 10.0 mi Calm Calm - N/A   Clear
3:55 AM 45.5 °F 44.2 °F 95% 30.26 in 10.0 mi Calm Calm - N/A   Clear
4:15 AM 45.7 °F 44.6 °F 96% 30.27 in 10.0 mi Calm Calm - N/A   Clear
4:35 AM 45.0 °F 43.7 °F 95% 30.27 in 10.0 mi Calm Calm - N/A   Clear
4:55 AM 45.0 °F 43.9 °F 96% 30.27 in 10.0 mi Calm Calm - N/A   Clear
5:15 AM 44.6 °F 43.7 °F 97% 30.27 in 10.0 mi Calm Calm - N/A   Clear
5:35 AM 44.8 °F 43.7 °F 96% 30.27 in 10.0 mi Calm Calm - N/A   Clear
5:55 AM 44.1 °F 43.0 °F 96% 30.28 in 7.0 mi Calm Calm - N/A   Clear
6:15 AM 43.9 °F 42.8 °F 96% 30.28 in 10.0 mi Calm Calm - N/A   Clear
6:35 AM 43.9 °F 42.8 °F 96% 30.29 in 10.0 mi Calm Calm - N/A   Clear
6:55 AM 44.1 °F 43.0 °F 96% 30.30 in 10.0 mi Calm Calm - N/A   Clear
7:15 AM 45.5 °F 44.4 °F 96% 30.30 in 10.0 mi Calm Calm - N/A   Clear
7:35 AM 46.6 °F 45.5 °F 96% 30.31 in 10.0 mi Calm Calm - N/A   Clear
7:55 AM 47.7 °F 46.6 °F 96% 30.31 in 10.0 mi Calm Calm - N/A   Clear
8:15 AM 49.8 °F 48.4 °F 95% 30.31 in 10.0 mi Calm Calm - N/A   Clear
8:35 AM 51.6 °F 48.7 °F 90% 30.31 in 10.0 mi Calm Calm - N/A   Clear
8:55 AM 54.1 °F 48.4 °F 81% 30.30 in 10.0 mi Calm Calm - N/A   Clear
9:15 AM 56.1 °F 49.5 °F 78% 30.30 in 10.0 mi Calm Calm - N/A   Clear
9:35 AM 58.5 °F 48.9 °F 71% 30.30 in 10.0 mi Calm Calm - N/A   Clear
9:55 AM 60.4 °F 48.0 °F 64% 30.30 in 10.0 mi Calm Calm - N/A   Clear
10:15 AM 63.1 °F 49.1 °F 60% 30.29 in 10.0 mi Calm Calm - N/A   Clear
10:35 AM 64.8 °F 50.7 °F 60% 30.28 in 10.0 mi Calm Calm - N/A   Clear
10:55 AM 67.8 °F 52.0 °F 57% 30.27 in 10.0 mi Calm Calm - N/A   Clear
11:15 AM 69.8 °F 51.4 °F 52% 30.27 in 10.0 mi NE 5.8 mph - N/A   Clear
11:35 AM 70.7 °F 50.9 °F 49% 30.26 in 10.0 mi ESE 3.5 mph - N/A   Clear
11:55 AM 72.1 °F 53.1 °F 51% 30.25 in 10.0 mi NNE 3.5 mph - N/A   Clear
12:15 PM 74.1 °F 50.9 °F 44% 30.25 in 10.0 mi SE 3.5 mph - N/A   Clear
12:35 PM 74.3 °F 49.1 °F 41% 30.24 in 10.0 mi ESE 4.6 mph - N/A   Clear
12:55 PM 75.6 °F 50.5 °F 41% 30.24 in 10.0 mi ESE 5.8 mph - N/A   Clear
1:15 PM 76.5 °F 50.9 °F 41% 30.23 in 10.0 mi East 5.8 mph - N/A   Clear
1:35 PM 76.8 °F 51.3 °F 41% 30.23 in 10.0 mi ESE 5.8 mph - N/A   Clear
1:55 PM 77.4 °F 51.1 °F 40% 30.22 in 10.0 mi SE 4.6 mph - N/A   Clear
2:15 PM 77.5 °F 51.4 °F 40% 30.22 in 10.0 mi SSW 4.6 mph - N/A   Clear
2:35 PM 77.9 °F 51.1 °F 39% 30.21 in 10.0 mi SE 6.9 mph - N/A   Clear
2:55 PM 78.4 °F 52.2 °F 40% 30.20 in 10.0 mi South 4.6 mph - N/A   Clear
3:15 PM 78.4 °F 51.4 °F 39% 30.20 in 10.0 mi ESE 5.8 mph 9.2 mph N/A   Clear
3:35 PM 79.5 °F 52.3 °F 39% 30.19 in 10.0 mi South 9.2 mph - N/A   Clear
3:55 PM 79.2 °F 52.3 °F 39% 30.18 in 10.0 mi South 5.8 mph - N/A   Scattered Clouds
4:15 PM 79.0 °F 51.6 °F 38% 30.18 in 10.0 mi SSE 5.8 mph - N/A   Scattered Clouds
4:35 PM 79.2 °F 50.7 °F 37% 30.18 in 10.0 mi SE 5.8 mph 16.1 mph N/A   Clear
4:55 PM 79.0 °F 51.8 °F 39% 30.18 in 10.0 mi SSE 5.8 mph - N/A   Clear
5:15 PM 77.7 °F 52.0 °F 41% 30.18 in 10.0 mi South 3.5 mph - N/A   Scattered Clouds
5:35 PM 76.8 °F 51.4 °F 41% 30.18 in 10.0 mi SE 6.9 mph - N/A   Scattered Clouds
5:55 PM 77.0 °F 52.0 °F 42% 30.18 in 10.0 mi SSW 5.8 mph - N/A   Scattered Clouds
6:15 PM 77.0 °F 52.0 °F 42% 30.18 in 10.0 mi South 4.6 mph - N/A   Scattered Clouds
6:35 PM 77.2 °F 53.4 °F 44% 30.18 in 10.0 mi SSE 3.5 mph - N/A   Scattered Clouds
6:55 PM 75.6 °F 52.5 °F 45% 30.18 in 10.0 mi South 5.8 mph - N/A   Scattered Clouds
7:15 PM 74.5 °F 52.3 °F 46% 30.18 in 10.0 mi South 4.6 mph - N/A   Clear
7:35 PM 73.8 °F 52.2 °F 47% 30.18 in 10.0 mi South 3.5 mph - N/A   Clear
7:55 PM 73.2 °F 52.3 °F 48% 30.18 in 10.0 mi SSE 3.5 mph - N/A   Clear
8:15 PM 72.3 °F 52.9 °F 50% 30.18 in 10.0 mi Calm Calm - N/A   Clear
8:35 PM 72.0 °F 52.7 °F 51% 30.18 in 10.0 mi Calm Calm - N/A   Clear
8:55 PM 70.7 °F 52.7 °F 53% 30.18 in 10.0 mi Calm Calm - N/A   Clear
9:15 PM 67.6 °F 53.8 °F 61% 30.19 in 10.0 mi Calm Calm - N/A   Clear
9:35 PM 63.0 °F 55.4 °F 76% 30.20 in 10.0 mi Calm Calm - N/A   Clear
9:55 PM 62.1 °F 55.6 °F 79% 30.21 in 10.0 mi Calm Calm - N/A   Clear
10:15 PM 61.2 °F 55.0 °F 80% 30.21 in 10.0 mi Calm Calm - N/A   Clear
10:35 PM 60.4 °F 55.6 °F 84% 30.22 in 10.0 mi Calm Calm - N/A   Clear
10:55 PM 59.4 °F 54.3 °F 83% 30.23 in 10.0 mi Calm Calm - N/A   Clear
11:15 PM 58.3 °F 54.9 °F 88% 30.23 in 10.0 mi Calm Calm - N/A   Clear
11:35 PM 58.3 °F 55.2 °F 90% 30.23 in 10.0 mi Calm Calm - N/A   Scattered Clouds
11:55 PM 58.1 °F 54.1 °F 87% 30.23 in 10.0 mi Calm Calm - N/A   Scattered Clouds